User: anonymous   Login
Location: Unspecified
(0.0000°N, 0.0000°E)
Time: 10:25:17
(UTC+00:00)
Language:

GONETS M04 - Orbit

View from above orbital plane
View from above orbital plane
View from above satellite
View from above satellite

Ground track
Ground track

The orbit data is extracted from the following two-line orbital elements,

1 38736U 12041D   17080.84386127 +.00000010 +00000-0 +00000-0 0  9991
2 38736 082.4848 018.6172 0019803 210.6026 149.3903 12.42887644210891
Epoch (UTC): 21 March 2017 20:15:09
Eccentricity: 0.0019803
inclination: 82.4848°
perigee height: 1479 km
apogee height: 1510 km
right ascension of ascending node: 18.6172°
argument of perigee: 210.6026°
revolutions per day: 12.42887644
mean anomaly at epoch: 149.3903°
orbit number at epoch: 21089

The dashed part of the orbit path shows where the satellite is in the earth's shadow,  

DLR